Hourly Data Report for February 14, 2020

TORONTO CITY
ONTARIO
Current Station Operator: ECCC - MSC

43°40'00.000" N
79°24'00.000" W
112.50 m
6158355
71508
XTO

Download Data

Hourly Data (February 2020)
Hourly Data Report for February 14, 2020
TIME
LST
Temp Definition
°C
Dew Point Definition
°C
Rel Hum Definition
%
Precip. Amount Definition
mm

Wind Dir Definition
10's deg

Wind Spd Definition
km/h
Visibility Definition
km
Stn Press Definition
kPa
Hmdx Definition


Wind Chill Definition


Weather Definition


00:00 -13.8 -20.7 56 0.0       100.86     LegendNANA
01:00 -15.3 -23.2 51 0.0       100.98     LegendNANA
02:00 -16.4 -24.2 51 0.0       101.10     LegendNANA
03:00 -17.1 -24.8 51 0.0       101.21     LegendNANA
04:00 -18.2 -25.7 52 0.0       101.32     LegendNANA
05:00 -18.8 -25.4 56 0.0       101.42     LegendNANA
06:00 -19.0 -25.6 56 0.0       101.53     LegendNANA
07:00 -18.8 -24.8 59 0.0       101.64     LegendNANA
08:00 -18.6 -25.0 57 0.0       101.75     LegendNANA
09:00 -17.3 -24.9 51 0.0       101.87     LegendNANA
10:00 -15.0 -23.6 48 0.0       101.95     LegendNANA
11:00 -13.1 -22.4 45 0.0       102.00     LegendNANA
12:00 -11.5 -20.3 48 0.0       102.01     LegendNANA
13:00 -11.1 -19.3 51 0.0       101.99     LegendNANA
14:00 -10.3 -17.5 55 0.6       101.94     LegendNANA
15:00 -10.6 -17.1 59 0.0       101.97     LegendNANA
16:00 -10.2 -15.5 65 0.0       102.00     LegendNANA
17:00 -9.4 -14.3 67 0.0       102.03     LegendNANA
18:00 -9.0 -14.5 64 0.0       102.02     LegendNANA
19:00 -8.3 -15.3 57 0.0       102.01     LegendNANA
20:00 -8.0 -15.9 53 0.0       102.03     LegendNANA
21:00 -8.6 -15.2 59 0.0       102.01     LegendNANA
22:00 -8.7 -15.5 58 0.0       102.00     LegendNANA
23:00 -8.3 -15.5 56 0.0       101.97     LegendNANA

Notes on Data Quality.

Legend

  • E = Estimated
  • M = Missing
  • NA = Not Available*
  • [empty] = Indicates an unobserved value
Date modified: